Date String (YYYY-MM-DD hh:mm:ss) UTC,Instrument flags,Ambient pressure (hPa),Sample flow (lpm),Bypass flow (lpm),Sample temperature (°C),Ambient temperature (°C),ASC tube jacket temperature (°C),LED temperature (°C),Box temperature (°C),Sample RH (%),Span deviation,Mass concentration (μg/m³),Mass concentration (μg/m³),Mass concentration (μg/m³)
DateTimeUTC,F1_M11,P_M11,Q1_M11,Q2_M11,T1_M11,T2_M11,T3_M11,T4_M11,T5_M11,U1_M11,ZSPAN_M11,X0_M11,X2_M11,X1_M11
2023-02-12 00:00:00,,0822.2,4.98,0.00,26.7,25.4,00.0,35.5,28.6,10.2,0002.4,0016.56,0010.41,0009.62
2023-02-12 00:01:00,,0821.9,4.99,0.00,26.7,25.4,00.0,35.5,28.6,10.2,0005.1,0016.43,0010.22,0009.46
2023-02-12 00:02:00,,0821.9,5.01,0.00,26.7,25.4,00.0,35.5,28.5,10.2,0000.0,0015.95,0010.00,0009.30
2023-02-12 00:03:00,,0822.0,5.00,0.00,26.7,25.4,00.0,35.6,28.6,10.2,0000.0,0015.55,0009.82,0009.15
2023-02-12 00:04:00,,0822.1,4.97,0.00,26.7,25.4,00.0,35.6,28.6,10.2,0000.0,0015.60,0009.71,0009.04
2023-02-12 00:05:00,,0822.1,4.96,0.00,26.7,25.4,00.0,35.6,28.6,10.2,0000.0,0015.55,0009.63,0008.95
2023-02-12 00:06:00,,0822.1,4.97,0.00,26.7,25.4,00.0,35.6,28.6,10.2,0000.0,0015.43,0009.56,0008.93
2023-02-12 00:07:00,,0822.1,5.02,0.00,26.7,25.4,00.0,35.6,28.5,10.3,0000.0,0015.29,0009.59,0008.94
2023-02-12 00:08:00,,0822.2,5.01,0.00,26.7,25.4,00.0,35.6,28.5,10.3,0000.0,0015.37,0009.65,0008.96
2023-02-12 00:09:00,,0822.2,5.01,0.00,26.7,25.4,00.0,35.6,28.5,10.3,0000.0,0015.98,0009.66,0008.96
2023-02-12 00:10:00,,0822.1,5.00,0.00,26.7,25.4,00.0,35.6,28.6,10.3,0000.0,0016.19,0009.70,0008.99
2023-02-12 00:11:00,,0822.1,5.00,0.00,26.7,25.3,00.0,35.6,28.6,10.3,0000.0,0016.61,0009.75,0009.02
2023-02-12 00:12:00,,0822.1,4.99,0.00,26.7,25.3,00.0,35.6,28.6,10.3,0000.0,0016.36,0009.79,0009.05
2023-02-12 00:13:00,,0822.1,4.98,0.00,26.7,25.3,00.0,35.6,28.6,10.3,0000.0,0017.15,0009.83,0009.07
2023-02-12 00:14:00,,0822.0,5.01,0.00,26.7,25.3,00.0,35.6,28.6,10.3,0000.0,0017.10,0009.87,0009.11
2023-02-12 00:15:00,,0822.1,4.98,0.00,26.7,25.3,00.0,35.6,28.6,10.3,0000.0,0016.84,0009.91,0009.14
2023-02-12 00:16:00,,0822.1,5.01,0.00,26.7,25.3,00.0,35.6,28.6,10.3,0000.0,0016.97,0009.94,0009.18
2023-02-12 00:17:00,,0822.1,4.99,0.00,26.7,25.3,00.0,35.6,28.6,10.3,0000.0,0017.68,0010.04,0009.22
2023-02-12 00:18:00,,0822.1,5.01,0.00,26.7,25.3,00.0,35.6,28.6,10.3,0000.0,0018.06,0010.05,0009.26
2023-02-12 00:19:00,,0822.1,4.98,0.00,26.7,25.3,00.0,35.6,28.6,10.3,0000.0,0018.30,0010.07,0009.28
2023-02-12 00:20:00,,0822.2,5.00,0.00,26.7,25.3,00.0,35.6,28.6,10.3,0000.0,0018.17,0010.10,0009.30
2023-02-12 00:21:00,,0822.2,4.98,0.00,26.7,25.3,00.0,35.6,28.6,10.3,0000.0,0017.66,0010.16,0009.33
2023-02-12 00:22:00,,0822.2,5.01,0.00,26.7,25.3,00.0,35.6,28.5,10.3,0000.0,0017.21,0010.19,0009.38
2023-02-12 00:23:00,,0822.2,5.00,0.00,26.7,25.3,00.0,35.6,28.5,10.3,0000.0,0017.37,0010.25,0009.42
2023-02-12 00:24:00,,0822.2,5.04,0.00,26.7,25.3,00.0,35.6,28.5,10.3,0000.0,0016.85,0010.31,0009.47
2023-02-12 00:25:00,,0822.2,4.99,0.00,26.7,25.3,00.0,35.5,28.5,10.1,0000.0,0017.00,0010.34,0009.51
2023-02-12 00:26:00,,0822.2,4.98,0.00,26.7,25.3,00.0,35.5,28.5,09.6,0000.0,0017.12,0010.34,0009.50
2023-02-12 00:27:00,,0822.2,5.00,0.00,26.7,25.3,00.0,35.5,28.5,09.6,0000.0,0016.77,0010.28,0009.47
2023-02-12 00:28:00,,0822.2,5.01,0.00,26.7,25.3,00.0,35.5,28.5,09.6,0000.0,0016.25,0010.20,0009.42
2023-02-12 00:29:00,,0822.2,4.99,0.00,26.7,25.3,00.0,35.5,28.5,09.6,0000.0,0015.97,0010.18,0009.39
2023-02-12 00:30:00,,0822.2,4.98,0.00,26.7,25.3,00.0,35.5,28.5,09.6,0000.0,0015.56,0010.12,0009.35
2023-02-12 00:31:00,,0822.2,5.02,0.00,26.7,25.3,00.0,35.5,28.5,09.7,0002.2,0015.17,0010.12,0009.35
2023-02-12 00:32:00,,0822.2,4.96,0.00,26.7,25.3,00.0,35.5,28.5,09.7,0001.2,0015.45,0010.11,0009.32
2023-02-12 00:33:00,,0822.2,5.02,0.00,26.7,25.3,00.0,35.5,28.5,09.7,0000.0,0015.90,0010.12,0009.28
2023-02-12 00:34:00,,0822.2,5.04,0.00,26.7,25.3,00.0,35.5,28.5,09.8,0000.0,0015.65,0010.11,0009.25
2023-02-12 00:35:00,,0822.2,4.98,0.00,26.7,25.3,00.0,35.5,28.5,09.3,0000.0,0015.44,0010.02,0009.17
2023-02-12 00:36:00,,0822.2,4.99,0.00,26.7,25.3,00.0,35.5,28.5,08.9,0000.0,0015.23,0009.91,0009.02
2023-02-12 00:37:00,,0822.3,4.98,0.00,26.7,25.3,00.0,35.5,28.5,08.7,0000.0,0014.88,0009.75,0008.89
2023-02-12 00:38:00,,0822.3,5.01,0.00,26.7,25.3,00.0,35.5,28.5,08.8,0000.0,0015.46,0009.64,0008.78
2023-02-12 00:39:00,,0822.4,5.00,0.00,26.7,25.3,00.0,35.5,28.5,09.1,0000.0,0015.80,0009.59,0008.73
2023-02-12 00:40:00,,0822.4,5.00,0.00,26.7,25.2,00.0,35.5,28.5,08.8,0000.0,0015.48,0009.47,0008.65
2023-02-12 00:41:00,,0822.4,5.00,0.00,26.7,25.2,00.0,35.5,28.5,08.6,0000.0,0015.61,0009.31,0008.50
2023-02-12 00:42:00,,0822.4,5.00,0.00,26.7,25.2,00.0,35.5,28.5,08.5,0000.0,0015.31,0009.06,0008.30
2023-02-12 00:43:00,,0822.4,5.01,0.00,26.7,25.2,00.0,35.5,28.4,08.5,0000.0,0014.63,0008.82,0008.11
2023-02-12 00:44:00,,0822.4,4.98,0.00,26.7,25.2,00.0,35.5,28.5,08.4,0000.0,0013.82,0008.56,0007.93
2023-02-12 00:45:00,,0822.4,4.99,0.00,26.6,25.2,00.0,35.5,28.5,08.2,0000.0,0013.41,0008.28,0007.68
2023-02-12 00:46:00,,0822.4,5.00,0.00,26.6,25.2,00.0,35.5,28.5,07.9,0000.0,0013.03,0008.01,0007.45
2023-02-12 00:47:00,,0822.4,5.00,0.00,26.6,25.2,00.0,35.5,28.5,07.8,0000.0,0012.60,0007.76,0007.27
2023-02-12 00:48:00,,0822.4,4.98,0.00,26.6,25.2,00.0,35.5,28.5,07.9,0000.0,0012.33,0007.59,0007.13
2023-02-12 00:49:00,,0822.4,5.02,0.00,26.6,25.2,00.0,35.5,28.4,08.0,0000.0,0011.68,0007.49,0007.03
2023-02-12 00:50:00,,0822.4,5.00,0.00,26.6,25.2,00.0,35.5,28.4,07.8,0000.0,0011.01,0007.37,0006.90
2023-02-12 00:51:00,,0822.4,4.99,0.00,26.6,25.2,00.0,35.5,28.4,07.7,0000.0,0010.81,0007.28,0006.80
2023-02-12 00:52:00,,0822.4,5.00,0.00,26.6,25.1,00.0,35.5,28.4,07.8,0000.0,0010.47,0007.26,0006.76
2023-02-12 00:53:00,,0822.4,5.00,0.00,26.6,25.1,00.0,35.5,28.5,07.8,0000.0,0010.68,0007.26,0006.77
2023-02-12 00:54:00,,0822.3,4.99,0.00,26.6,25.1,00.0,35.5,28.4,08.0,0000.0,0010.81,0007.33,0006.84
2023-02-12 00:55:00,,0822.3,5.01,0.00,26.6,25.1,00.0,35.5,28.4,08.1,0000.0,0011.10,0007.42,0006.94
2023-02-12 00:56:00,,0822.3,5.00,0.00,26.6,25.1,00.0,35.5,28.4,08.2,0000.0,0011.21,0007.52,0007.05
2023-02-12 00:57:00,,0822.3,4.97,0.00,26.6,25.1,00.0,35.5,28.4,08.2,0000.0,0011.46,0007.73,0007.24
2023-02-12 00:58:00,,0822.4,5.03,0.00,26.6,25.1,00.0,35.4,28.4,08.3,0000.0,0011.78,0008.00,0007.49
2023-02-12 00:59:00,,0822.4,4.99,0.00,26.6,25.1,00.0,35.4,28.4,08.3,0000.0,0012.16,0008.29,0007.73
